Miami, FL

2:38 AM EST on December 16, 2019 (GMT -0500)
Miami International

Weather History for KMIA - November, 2019

Change the Weather History Date:

Tuesday, November 19, 2019

  Actual Average Record
Temperature  
Mean Temperature 73 °F 74 °F  
Max Temperature 83 °F 81 °F 89 °F (1986)
Min Temperature 62 °F 68 °F 44 °F (1951)
Degree Days  
Heating Degree Days 0 0  
Month to date heating degree days 4 0  
Since 1 July heating degree days 4 0  
Cooling Degree Days 8 9  
Month to date cooling degree days 248 205  
Year to date cooling degree days 4919 4277  
Growing Degree Days 22 (Base 50)    
Moisture  
Dew Point 57 °F    
Average Humidity 64    
Maximum Humidity 90    
Minimum Humidity 37    
Precipitation  
Precipitation T in 0.09 in 6.78 in (1959)
Month to date precipitation 1.46 2.32  
Year to date precipitation 60.56 58.91  
Snow  
Snow 0.00 in - - ()
Month to date snowfall 0.0  
Since 1 July snowfall 0.0  
Since 1 September snowfall 0.0  
Snow Depth 0.00 in    
Sea Level Pressure  
Sea Level Pressure 29.95 in    
Wind  
Wind Speed 5 mph (WNW)    
Max Wind Speed 13 mph    
Max Gust Speed 19 mph    
Visibility 10 miles    
Events      
T = Trace of Precipitation, MM = Missing Value Source: NWS Daily Summary

Daily Weather History Graph

Daily Weather History Graph

Search for Another Location

Airport or City:

Astronomy

Nov. 19, 2019 Rise Set
Actual Time 6:41 AM EST 5:31 PM EST
Civil Twilight 6:17 AM EST 5:55 PM EST
Nautical Twilight 5:49 AM EST 6:23 PM EST
Astronomical Twilight 5:21 AM EST 6:50 PM EST
Moon No Moon Rise 12:54 PM EST (11/19)
Length of Visible Light 11h 38m
Length of Day
10h 49m
Waning Gibbous, 52% of the Moon is Illuminated
Nov 19
Waning Gibbous
Nov 19
Last Quarter
Nov 26
New
Dec 4
First Quarter
Dec 12
Full

Hourly Weather History & Observations

Time (EST) Temp. Heat Index Dew Point Humidity Pressure Visibility Wind Dir Wind Speed Gust Speed Precip Events Conditions
12:53 AM 66.0 °F - 59.0 °F 78% 29.89 in 10.0 mi Calm Calm - N/A   Mostly Cloudy
1:53 AM 64.9 °F - 59.0 °F 81% 29.89 in 10.0 mi Calm Calm - N/A   Mostly Cloudy
2:53 AM 64.0 °F - 59.0 °F 84% 29.89 in 10.0 mi Calm Calm - N/A   Mostly Cloudy
3:53 AM 64.0 °F - 59.0 °F 84% 29.89 in 10.0 mi Calm Calm - N/A   Scattered Clouds
4:53 AM 63.0 °F - 57.9 °F 84% 29.90 in 10.0 mi Calm Calm - N/A   Mostly Cloudy
5:53 AM 62.1 °F - 59.0 °F 90% 29.92 in 10.0 mi Calm Calm - N/A   Scattered Clouds
6:53 AM 64.0 °F - 59.0 °F 84% 29.94 in 10.0 mi Calm Calm - N/A   Scattered Clouds
7:53 AM 68.0 °F - 61.0 °F 78% 29.96 in 10.0 mi Calm Calm - N/A   Scattered Clouds
8:53 AM 73.0 °F - 57.9 °F 59% 29.96 in 10.0 mi Calm Calm - N/A   Partly Cloudy
9:53 AM 75.0 °F - 59.0 °F 57% 29.96 in 10.0 mi South 4.6 mph - N/A   Clear
10:53 AM 78.1 °F - 57.0 °F 48% 29.95 in 10.0 mi Variable 3.5 mph - N/A   Partly Cloudy
11:53 AM 80.1 °F 80.6 °F 57.9 °F 47% 29.93 in 10.0 mi WSW 8.1 mph - N/A   Partly Cloudy
12:53 PM 79.0 °F - 55.9 °F 45% 29.92 in 10.0 mi WSW 5.8 mph - 0.00 in   Scattered Clouds
1:53 PM 82.0 °F 81.7 °F 57.0 °F 42% 29.91 in 10.0 mi WNW 8.1 mph - N/A   Mostly Cloudy
2:53 PM 81.0 °F 80.5 °F 54.0 °F 39% 29.90 in 10.0 mi West 10.4 mph - 0.00 in   Scattered Clouds
3:53 PM 82.0 °F 81.2 °F 53.1 °F 37% 29.92 in 10.0 mi WNW 11.5 mph 17.3 mph N/A   Scattered Clouds
4:53 PM 80.1 °F 80.0 °F 54.0 °F 40% 29.94 in 10.0 mi WNW 9.2 mph - N/A   Partly Cloudy
5:53 PM 77.0 °F - 55.9 °F 48% 29.95 in 10.0 mi West 8.1 mph - N/A   Partly Cloudy
6:53 PM 73.9 °F - 55.9 °F 53% 29.98 in 10.0 mi West 6.9 mph - N/A   Partly Cloudy
7:53 PM 73.0 °F - 57.0 °F 57% 30.00 in 10.0 mi NW 5.8 mph - N/A   Mostly Cloudy
8:53 PM 72.0 °F - 55.9 °F 57% 30.03 in 10.0 mi NNW 8.1 mph 16.1 mph N/A   Scattered Clouds
9:53 PM 70.0 °F - 53.1 °F 55% 30.04 in 10.0 mi North 5.8 mph - N/A   Clear
10:53 PM 69.1 °F - 52.0 °F 54% 30.04 in 10.0 mi NNW 4.6 mph - N/A   Clear
11:53 PM 66.9 °F - 51.1 °F 57% 30.04 in 10.0 mi NNW 8.1 mph - N/A   Clear